Location: Athabasca
(54.7194°N, 113.2858°W)
Time: 23:05:32
(UTC+00:00)

ITUPSAT 1 - Visible Passes

Search period start: 01 December 2023 00:00
Search period end: 11 December 2023 00:00
Orbit: 697 x 707 km, 98.5° (Epoch: 01 December)

Date Brightness Start Highest point End Pass type
(mag) Time Alt. Az. Time Alt. Az. Time Alt. Az.
01 Dec ? 13:51:55 10° ENE 13:53:30 12° NE 13:55:05 10° NNE visible
02 Dec ? 14:32:07 10° ESE 14:35:38 21° NE 14:39:10 10° N visible
04 Dec ? 14:20:24 10° E 14:23:31 18° NE 14:26:39 10° N visible
06 Dec ? 14:08:48 10° E 14:11:25 15° NE 14:14:01 10° NNE visible
07 Dec ? 14:49:38 10° ESE 14:53:37 27° ENE 14:57:36 10° N visible
08 Dec ? 13:57:23 10° ENE 13:59:18 12° NE 14:01:14 10° NNE visible
09 Dec ? 14:37:47 10° ESE 14:41:26 22° NE 14:45:05 10° N visible
10 Dec ? 13:46:29 10° NE 13:47:12 10° NE 13:47:54 10° NE visible
